VIASAT-1

Last updated on Thu Nov 21 2024 00:02:41 GMT+0000 (Coordinated Universal Time)

1 37843U 11059A 24325.25612157 -.00000022 00000+0 00000+0 0 9999 2 37843 0.0173 297.9650 0002169 300.7563 158.1411 1.00270910 41565
UTC large
Height (km)
Speed (km/s)
/
Latitude / Longitude
Inclination (degrees)
Orbital Period (minutes)
Azimuth
Elevation
Range (km)
Doppler Factor

Next 0 passes for location: London (51.5072 / 0.1276)

Sorry there are no passes over London.